GW2624 Weather Reports


time (UTC)temp
F
wind
direction
speed
knots
gust
knots
rain 1hr
in
rain 24hr
in
rain mn
in
humidity
%
barometer
mb
20260902092905 61 215 0.0 0.0 0.00 0.06 0.00 76 1009.8
20260902091905 61 215 0.0 0.0 0.00 0.06 0.00 76 1009.8
20260902091404 61 215 0.0 0.9 0.00 0.06 0.00 76 1009.9
20260902085905 62 215 0.0 1.7 0.00 0.06 0.00 76 1009.9
20260902084904 62 167 0.0 0.9 0.00 0.07 0.00 76 1009.9
20260902084405 62 167 0.0 0.9 0.00 0.14 0.00 76 1010.0
20260902083404 62 167 0.0 0.9 0.00 0.23 0.00 76 1010.0
20260902081904 63 167 0.9 2.6 0.00 0.29 0.00 76 1010.2
20260902080904 63 167 0.0 2.6 0.00 0.31 0.00 74 1010.2
20260902080404 64 167 0.0 0.0 0.00 0.31 0.00 73 1010.2
20260902075904 64 167 0.0 0.9 0.00 0.31 0.00 72 1010.3
20260902075404 64 167 0.0 2.6 0.00 0.31 0.00 72 1010.3
20260902074904 64 167 0.0 2.6 0.00 0.31 0.00 73 1010.3
20260902074404 64 171 0.9 1.7 0.00 0.31 0.00 73 1010.3
20260902071904 65 229 0.0 0.9 0.00 0.31 0.00 73 1010.1
20260902065904 65 229 0.0 0.0 0.00 0.31 0.00 71 1010.1
20260902065404 65 229 0.0 0.0 0.00 0.31 0.00 71 1010.1
20260902064404 65 229 0.0 0.0 0.00 0.31 0.00 70 1010.2
20260902063904 66 229 0.0 0.0 0.00 0.31 0.00 69 1010.2
20260902060905 67 219 0.9 2.6 0.00 0.31 0.00 67 1010.3
20260902055904 67 140 0.9 1.7 0.00 0.31 0.31 67 1010.4
20260902054404 67 140 0.0 2.6 0.00 0.31 0.31 67 1010.4
20260902052904 67 145 0.9 2.6 0.00 0.31 0.31 68 1010.5
20260902052404 67 145 0.0 0.9 0.00 0.31 0.31 68 1010.5
20260902051905 67 145 0.0 0.9 0.00 0.31 0.31 67 1010.5
20260902051404 67 145 0.0 0.9 0.00 0.31 0.31 66 1010.5
20260902050904 67 145 0.0 2.6 0.00 0.31 0.31 66 1010.6
20260902050404 67 145 0.0 2.6 0.00 0.31 0.31 65 1010.5
20260902044404 67 145 0.9 2.6 0.00 0.32 0.31 64 1010.4
20260902043904 67 145 1.7 2.6 0.00 0.32 0.31 64 1010.4
20260902043404 67 145 1.7 2.6 0.00 0.32 0.31 64 1010.5
20260902042904 67 142 1.7 2.6 0.00 0.32 0.31 64 1010.4
20260902041904 67 146 0.9 2.6 0.00 0.32 0.31 66 1010.4
20260902041404 67 146 1.7 2.6 0.00 0.32 0.31 66 1010.4
20260902035404 67 143 1.7 2.6 0.00 0.32 0.31 66 1010.1
20260902034404 67 147 1.7 2.6 0.00 0.32 0.31 68 1009.9
20260902033904 67 150 1.7 2.6 0.00 0.32 0.31 69 1009.8
20260902033404 67 145 1.7 2.6 0.00 0.32 0.31 69 1009.7
20260902032904 67 144 1.7 2.6 0.00 0.32 0.31 69 1009.6
20260902030903 67 142 1.7 4.3 0.00 0.32 0.31 71 1009.4
20260902030404 67 141 1.7 4.3 0.00 0.32 0.31 72 1009.3
20260902025904 67 150 1.7 4.3 0.00 0.32 0.31 73 1009.3
20260902021904 68 283 0.0 0.0 0.00 0.32 0.31 73 1009.0
20260902020904 68 283 0.0 0.0 0.00 0.32 0.31 69 1009.0
20260902015404 69 283 0.0 0.0 0.00 0.32 0.31 69 1008.9
20260902013904 70 283 0.0 0.0 0.00 0.32 0.31 68 1008.7
20260902013404 71 283 0.0 0.0 0.00 0.32 0.31 67 1008.6
20260902005904 75 225 0.9 1.7 0.00 0.33 0.31 57 1008.4
20260902004904 76 253 0.9 1.7 0.00 0.33 0.31 55 1008.4
20260902003904 76 251 0.0 2.6 0.00 0.33 0.31 52 1008.5
20260902003404 76 246 0.0 2.6 0.00 0.33 0.31 51 1008.5
20260902001903 75 225 0.9 2.6 0.00 0.33 0.31 57 1008.8
20260902001404 75 216 0.0 2.6 0.00 0.33 0.31 58 1008.7
20260902000904 75 190 0.0 2.6 0.00 0.33 0.31 57 1008.8
20260901235905 75 185 1.7 2.6 0.00 0.34 0.31 56 1009.0
20260901234404 75 214 0.9 2.6 0.00 0.35 0.31 56 1009.0
20260901233904 76 265 0.0 0.0 0.00 0.35 0.31 56 1009.0
20260901233404 76 265 0.0 0.0 0.00 0.35 0.31 55 1009.0
20260901231903 77 284 0.0 2.6 0.00 0.35 0.31 51 1009.0
20260901231404 77 277 0.0 1.7 0.00 0.35 0.31 51 1009.0
20260901230404 78 13 0.9 2.6 0.00 0.35 0.31 50 1009.1
20260901223904 79 319 0.9 7.0 0.00 0.35 0.31 41 1009.4
20260901223404 79 247 3.5 7.0 0.00 0.35 0.31 41 1009.3
20260901222404 79 194 1.7 4.3 0.00 0.35 0.31 41 1009.4
20260901221904 78 214 0.9 4.3 0.00 0.35 0.31 42 1009.4
20260901220904 78 207 0.0 2.6 0.00 0.35 0.31 45 1009.6
20260901215404 78 334 1.7 7.0 0.00 0.35 0.31 41 1009.7
20260901211904 79 166 3.5 7.0 0.00 0.35 0.31 44 1009.9
20260901211403 79 241 1.7 7.8 0.00 0.35 0.31 44 1009.8
20260901210904 79 220 1.7 7.8 0.00 0.35 0.31 47 1009.8
20260901210404 78 259 4.3 7.8 0.00 0.35 0.31 46 1009.9
20260901205404 79 194 2.6 10.4 0.00 0.35 0.31 46 1010.0
20260901204904 79 221 3.5 7.8 0.00 0.35 0.31 45 1010.0
20260901202904 78 190 1.7 8.7 0.00 0.35 0.31 48 1010.4
20260901202404 78 166 3.5 6.1 0.00 0.35 0.31 44 1010.3
20260901200904 78 247 2.6 6.1 0.00 0.35 0.31 43 1010.4
20260901200404 78 211 1.7 6.1 0.00 0.35 0.31 46 1010.3
20260901195904 77 204 2.6 6.1 0.00 0.35 0.31 47 1010.4
20260901194404 77 248 1.7 7.8 0.00 0.35 0.31 47 1010.3
20260901193904 77 141 3.5 7.8 0.00 0.35 0.31 44 1010.3
20260901192904 76 159 2.6 6.1 0.00 0.35 0.31 50 1010.5
20260901192404 75 191 0.9 2.6 0.00 0.35 0.31 54 1010.5
20260901190904 75 80 0.9 2.6 0.00 0.35 0.31 60 1010.6
20260901190404 74 299 1.7 2.6 0.00 0.35 0.31 59 1010.8
20260901184904 74 85 0.9 2.6 0.00 0.35 0.31 62 1010.9
20260901183404 73 292 0.9 2.6 0.00 0.35 0.31 65 1011.1
20260901181904 71 253 0.9 2.6 0.00 0.35 0.31 67 1011.2
20260901181404 71 302 0.0 2.6 0.00 0.35 0.31 67 1011.3
20260901180904 71 39 0.9 2.6 0.00 0.35 0.31 68 1011.4
20260901180404 71 221 0.0 2.6 0.00 0.35 0.31 71 1011.5
20260901174404 69 205 1.7 2.6 0.00 0.35 0.31 69 1011.7
20260901173404 68 165 0.9 2.6 0.00 0.35 0.31 71 1011.6
20260901171904 66 209 0.9 2.6 0.00 0.35 0.31 77 1011.8
20260901171403 66 218 0.9 2.6 0.00 0.35 0.31 77 1011.7
20260901170904 66 245 0.9 1.7 0.00 0.35 0.31 79 1011.6
20260901170404 65 271 0.9 2.6 0.00 0.35 0.31 81 1011.4
20260901165404 65 287 0.9 2.6 0.00 0.35 0.31 82 1011.4
20260901164404 64 123 0.9 1.7 0.00 0.35 0.31 85 1011.3
20260901163904 63 268 0.0 2.6 0.00 0.35 0.31 85 1011.2
20260901162404 63 172 0.9 2.6 0.00 0.35 0.31 86 1011.3
20260901161904 62 259 0.9 2.6 0.00 0.35 0.31 86 1011.3
20260901161404 62 30 0.9 2.6 0.00 0.35 0.31 86 1011.2
20260901160404 61 5 0.9 2.6 0.00 0.35 0.31 87 1011.2
20260901155904 61 31 0.0 2.6 0.00 0.35 0.31 87 1011.3
20260901154904 60 230 0.9 1.7 0.00 0.35 0.31 87 1011.3
20260901153904 59 0 0.0 0.9 0.00 0.35 0.31 87 1011.4
20260901153404 59 0 0.0 1.7 0.00 0.35 0.31 87 1011.4
20260901152903 59 0 0.0 1.7 0.00 0.35 0.31 87 1011.4
20260901152404 59 0 0.9 1.7 0.00 0.35 0.31 87 1011.4
20260901151404 59 0 0.0 1.7 0.00 0.35 0.31 87 1011.4
20260901145404 59 0 0.0 1.7 0.00 0.35 0.31 87 1011.1
20260901144903 59 0 0.0 1.7 0.00 0.35 0.31 87 1011.1
20260901144404 59 0 0.0 1.7 0.00 0.35 0.31 87 1011.1
20260901143904 59 0 0.0 0.0 0.00 0.35 0.31 87 1011.2
20260901143403 59 0 0.0 0.0 0.00 0.35 0.31 87 1011.2
20260901142904 59 0 0.0 0.0 0.00 0.35 0.31 87 1011.1
20260901141904 59 0 0.9 1.7 0.00 0.35 0.31 87 1011.0
20260901141404 58 0 0.0 0.0 0.00 0.35 0.31 87 1010.8
20260901133904 59 0 0.9 1.7 0.01 0.35 0.31 87 1010.2
20260901132905 59 0 0.0 1.7 0.01 0.35 0.31 87 1009.9
20260901131903 59 0 0.0 0.9 0.01 0.35 0.31 87 1010.0
20260901130404 58 0 0.0 0.9 0.01 0.35 0.31 87 1010.5
20260901125904 58 0 0.0 0.9 0.01 0.35 0.31 87 1010.4
20260901125404 58 0 0.0 1.7 0.00 0.34 0.30 87 1010.7
20260901124404 59 0 0.0 0.9 0.01 0.34 0.30 87 1010.6
20260901122903 58 0 0.0 0.9 0.02 0.34 0.30 87 1010.2
20260901121904 58 0 0.0 0.9 0.02 0.34 0.30 87 1010.3
20260901115404 58 0 0.0 1.7 0.03 0.34 0.30 87 1010.2
20260901114404 58 0 0.0 0.9 0.02 0.33 0.29 87 1010.4
20260901112904 58 0 0.9 2.6 0.01 0.32 0.28 87 1010.6
20260901112404 58 0 0.9 2.6 0.01 0.32 0.28 87 1010.5
20260901111404 58 0 0.0 2.6 0.01 0.32 0.28 87 1010.4
20260901104903 59 0 1.7 2.6 0.01 0.31 0.27 87 1010.5
20260901104404 59 0 0.0 0.9 0.02 0.31 0.27 87 1010.4
20260901102904 59 0 0.0 1.7 0.02 0.31 0.27 87 1010.3
20260901100904 59 0 0.0 0.0 0.02 0.31 0.27 87 1010.7
20260901100404 59 0 0.0 0.0 0.02 0.31 0.27 86 1010.8
20260901095404 59 0 0.0 0.9 0.02 0.31 0.27 86 1010.9
20260901093404 59 0 0.9 1.7 0.17 0.29 0.25 86 1011.1